Regional Weather Roundup
Issued by NWS

Home | Current Version | Previous Version | Text Only | Print | Product List | Glossary Off
Versions: 1 2 3 4 5 6 7 8 9 10 11 12 13 14 15 16 17 18 19 20 21 22 23 24 25 26 27 28 29 30 31 32 33 34 35 36 37 38 39 40 41 42 43 44 45 46 47 48 49 50

000
ASUS44 KMEG 272210
RWRTN
TENNESSEE HOURLY STATE WEATHER ROUNDUP
NATIONAL WEATHER SERVICE MEMPHIS TN
400 PM CST TUE JAN 27 2015

TNZ002-004-019-021-049-052-054-088>092-272300-
WEST TENNESSEE

CITY           SKY/WX    TMP DP  RH WIND       PRES   REMARKS
MEMPHIS INTL   SUNNY     55  35  47 NW9       30.13R
NWS MEMPHIS      N/A     55 N/A N/A MISG        N/A
JACKSON        SUNNY     50  32  50 N13       30.13R
DYERSBURG      SUNNY     46  25  42 N8        30.17R
UNION CITY     MOSUNNY   43  34  70 NW12      30.15R
PARIS          MOSUNNY   43  28  56 N12       30.14R
LEXINGTON      MOSUNNY   46  30  53 NW12      30.10R
SAVANNAH         N/A     52  32  46 N10       30.10R
$$

TNZ008-025-027-028-033-062-065-066-272300-
NORTH MIDDLE TENNESSEE

CITY           SKY/WX    TMP DP  RH WIND       PRES   REMARKS
NASHVILLE      CLOUDY    39  29  67 NW10      30.13R WCI  32
CLARKSVILLE    CLOUDY    38  30  73 NW14      30.15R WCI  30
SMYRNA         CLOUDY    39  31  73 N10       30.14R WCI  32
COOKEVILLE     PTSUNNY   36  32  87 NW5       30.07R WCI  32
CROSSVILLE     CLOUDY    32  27  81 NW9       30.04R WCI  24
$$

TNZ061-075-076-078-094-096-097-272300-
SOUTH MIDDLE TENNESSEE

CITY           SKY/WX    TMP DP  RH WIND       PRES   REMARKS
FAYETTEVILLE   PTSUNNY   43  30  61 N14G25    30.06R
TULLAHOMA      CLOUDY    37  30  75 N10       30.08R WCI  30
WINCHESTER     CLOUDY    39  30  70 N8        30.09R WCI  34
MCMINNVILLE    CLOUDY    36  32  87 N8        30.09R WCI  29
COLUMBIA       CLOUDY    46  36  66 N9        30.07R
SHELBYVILLE    PTSUNNY   39  34  81 N12       30.10R WCI  32
$$

TNZ017-018-042-046-047-272300-
NORTHEAST TENNESSEE

CITY           SKY/WX    TMP DP  RH WIND       PRES   REMARKS
TRI CITIES     MOCLDY    34  21  59 NW12      29.97R WCI  25
ELIZABETHTON   CLOUDY    30  19  64 W8        29.95S WCI  23
$$

TNZ012-013-036-069-073-074-272300-
CENTRAL EAST TENNESSEE

CITY           SKY/WX    TMP DP  RH WIND       PRES   REMARKS
KNOXVILLE      CLOUDY    35  29  78 CALM      30.05R
OAK RIDGE      CLOUDY    37  27  67 VRB3      30.07R
GATLINBURG     CLOUDY    34  25  69 NW7       30.04R WCI  28
MORRISTOWN     MOCLDY    34  27  75 NW6       30.02R WCI  29
$$

TNZ083-085-099-272300-
SOUTHEAST TENNESSEE

CITY           SKY/WX    TMP DP  RH WIND       PRES   REMARKS
CHATTANOOGA    CLOUDY    41  31  67 N9        30.07R
$$

SKY/WX REPORTED AS FAIR MEANS FEW OR NO CLOUDS BELOW
12 THOUSAND FEET.




USA.gov is the U.S. government's official web portal to all federal, state and local government web resources and services.